Regional Weather Roundup
Issued by NWS

Home | Current Version | Previous Version | Graphics & Text | Print | Product List | Glossary On
Versions: 1 2 3 4 5 6 7 8 9 10 11 12 13 14 15 16 17 18 19 20 21 22 23 24 25 26 27 28 29 30 31 32 33 34 35 36 37 38 39 40 41 42 43 44 45 46 47 48 49 50
000
ASUS43 KOAX 190302
RWRNE

WEATHER ROUNDUP FOR NEBRASKA
NATIONAL WEATHER SERVICE OMAHA NE
900 PM CST THU DEC 18 2014

NOTES: SATELLITE DATA IS BEING USED TO AUGMENT CLOUD COVER ABOVE
       12000 FEET.
       "FAIR" INDICATES FEW OR NO CLOUDS BELOW 12,000 FEET WITH NO
       SIGNIFICANT WEATHER AND/OR OBSTRUCTIONS TO VISIBILITY.

  * THESE STATIONS DO NOT REPORT WEATHER SUCH AS RAIN...SNOW OR FOG.

NEZ001>004-019>022-054>056-190400-
NEBRASKA PANHANDLE

CITY           SKY/WX    TMP DP  RH WIND       PRES   REMARKS
SCOTTSBLUFF    FOG       14  12  92 N3        30.08R VSB 1/2
ALLIANCE       MOCLDY    14  12  92 W7        30.06R WCI   4
CHADRON        PTCLDY    18  14  84 SW8       30.06R WCI   8
KIMBALL        CLOUDY    33  21  60 NW12      30.06R WCI  24
SIDNEY         CLOUDY    26  19  74 W12       30.08R WCI  16
$$

NEZ057>060-069>072-079>082-190400-
SOUTHWEST NEBRASKA

CITY           SKY/WX    TMP DP  RH WIND       PRES   REMARKS
NORTH PLATTE   MOCLDY    17  15  92 SE3       30.12R FOG
IMPERIAL       MOCLDY    21  19  92 CALM      30.10R FOG
LEXINGTON      CLOUDY    30  28  90 SW7       30.14R WCI  23
MCCOOK         CLOUDY    28  26  92 S5        30.13S WCI  23
$$

NEZ005>010-023>029-035>040-094-190400-
NORTH CENTRAL NEBRASKA

CITY           SKY/WX    TMP DP  RH WIND       PRES   REMARKS
VALENTINE      PTCLDY    10   7  87 CALM      30.08R FOG
AINSWORTH      PTCLDY    16  15  94 S3        30.08S FOG
BROKEN BOW     CLOUDY    29  27  92 SW7       30.11S FOG     WCI  22
$$

NEZ041-046>049-061>064-073>077-083>087-190400-
SOUTH CENTRAL NEBRASKA

CITY           SKY/WX    TMP DP  RH WIND       PRES   REMARKS
GRAND ISLAND   CLOUDY    29  25  85 W9        30.18R WCI  20
AURORA         CLOUDY    30  28  95 S3        30.18S
HASTINGS       CLOUDY    30  25  81 SW6       30.17R WCI  24
KEARNEY *      CLOUDY    28  25  86 SW6       30.16S WCI  22
$$

NEZ011>018-030>034-042>045-190400-
NORTHEAST NEBRASKA

CITY           SKY/WX    TMP DP  RH WIND       PRES   REMARKS
NORFOLK        CLOUDY    29  25  85 S5        30.17S WCI  24
BLAIR          CLOUDY    31  27  86 SE5       30.20S WCI  26
COLUMBUS *     CLOUDY    28  23  80 S7        30.21R WCI  21
FREMONT        CLOUDY    32  28  88 SE5       30.21S WCI  27
TEKAMAH        CLOUDY    31  27  85 SE6       30.22S WCI  25
$$

NEZ050>053-065>068-078-088>093-190400-
SOUTHEAST NEBRASKA

CITY           SKY/WX    TMP DP  RH WIND       PRES   REMARKS
LINCOLN        CLOUDY    31  28  89 S7        30.23R WCI  24
OMAHA EPPLEY   CLOUDY    31  27  85 SE6       30.24S WCI  25
FALLS CITY     CLOUDY    30  27  88 CALM      30.24S
NEBRASKA CITY  CLOUDY    30  30  99 S3        30.23S
PLATTSMOUTH    CLOUDY    30  27  88 SE5       30.23R WCI  25
$$

NEZ044-045-051>053-067-190400-
OMAHA AREA

CITY           SKY/WX    TMP DP  RH WIND       PRES   REMARKS
OMAHA EPPLEY   CLOUDY    31  27  85 SE6       30.24S WCI  25
BLAIR          CLOUDY    31  27  86 SE5       30.20S WCI  26
FREMONT        CLOUDY    32  28  88 SE5       30.21S WCI  27
OFFUTT AFB     CLOUDY    30  27  88 SE6       30.23R WCI  24
PLATTSMOUTH    CLOUDY    30  27  88 SE5       30.23R WCI  25
WAHOO          CLOUDY    31  28  86 SE5       30.21S WCI  26
$$


USA.gov is the U.S. government's official web portal to all federal, state and local government web resources and services.